Regional Weather Roundup
Issued by NWS

Home | Current Version | Previous Version | Text Only | Print | Product List | Glossary On
Versions: 1 2 3 4 5 6 7 8 9 10 11 12 13 14 15 16 17 18 19 20 21 22 23 24 25 26 27 28 29 30 31 32 33 34 35 36 37 38 39 40 41 42 43 44 45 46 47 48 49 50
000
ASUS44 KOUN 250210
RWROK

WEATHER ROUNDUP FOR OKLAHOMA
NATIONAL WEATHER SERVICE NORMAN OK
900 PM CDT SAT AUG 24 2019

NOTE: "FAIR" INDICATES FEW OR NO CLOUDS BELOW 12,000 FEET WITH NO
      SIGNIFICANT WEATHER AND/OR OBSTRUCTIONS TO VISIBILITY.

OKZ001>007-009>012-014-015-017-250300-
NORTHWEST OKLAHOMA AND THE PANHANDLE

CITY           SKY/WX    TMP DP  RH WIND       PRES   REMARKS
GAGE           CLEAR     78  66  66 S7        29.92S
GUYMON         CLEAR     78  67  68 SE10      29.91S
ENID/WOODRING  PTCLDY    79  73  83 E9        29.92R
$$

OKZ016-021>023-033>039-044-045-250300-
SOUTHWEST OKLAHOMA

CITY           SKY/WX    TMP DP  RH WIND       PRES   REMARKS
LAWTON/REGL    CLEAR     83  72  69 SE8       29.91R
LAWTON/FT SILL CLEAR     82  75  79 SE9       29.91R
FREDERICK      CLEAR     86  69  56 SE8       29.88R HX  90
CLINTON        CLEAR     83  65  54 S9        29.94R
HOBART           N/A    N/A N/A N/A MISG      29.91S
ALTUS AFB      CLEAR     82  67  61 SE8       29.89R
$$

OKZ018>020-024>031-250300-
CENTRAL OKLAHOMA

CITY           SKY/WX    TMP DP  RH WIND       PRES   REMARKS
OKLAHOMA CITY  PTCLDY    76  70  82 S6        29.94R
OKC/WILEY POST CLEAR     81  69  67 S12       29.93R
STILLWATER     CLEAR     82  72  71 SE10      29.93R
GUTHRIE        CLEAR     79  70  74 SE10      29.93R
$$

OKZ008-013-054>072-250300-
NORTHEAST OKLAHOMA

CITY           SKY/WX    TMP DP  RH WIND       PRES   REMARKS
TULSA          PTCLDY    79  73  82 E5        29.92R
TULSA/JONES    CLEAR     80  72  76 CALM      29.93R
PONCA CITY     CLEAR     79  73  82 SE6       29.94R
BARTLESVILLE   MOCLDY    78  74  87 NE7       29.96R
MUSKOGEE       CLEAR     76  72  87 SE5       29.94S
$$

OKZ032-040>043-046>053-073>077-250300-
SOUTH CENTRAL/SOUTHEAST OKLAHOMA

CITY           SKY/WX    TMP DP  RH WIND       PRES   REMARKS
MCALESTER      CLEAR     77  73  87 CALM      29.93S
$$




USA.gov is the U.S. government's official web portal to all federal, state and local government web resources and services.